Regional Weather Roundup
Issued by NWS

Home | Current Version | Previous Version | Graphics & Text | Print | Product List | Glossary On
Versions: 1 2 3 4 5 6 7 8 9 10 11 12 13 14 15 16 17 18 19 20 21 22 23 24 25 26 27 28 29 30 31 32 33 34 35 36 37 38 39 40 41 42 43 44 45 46 47 48 49 50
000
ASUS43 KLMK 241710
RWRKY
KENTUCKY REGIONAL WEATHER ROUNDUP
NATIONAL WEATHER SERVICE LOUISVILLE KY
100 PM EDT THU JUL 24 2014

NOTE "FAIR" INDICATES FEW OR NO CLOUDS BELOW 12,000 FEET
WITH NO SIGNIFICANT WEATHER AND/OR OBSTRUCTIONS TO VISIBILITY.

KYZ001>023-026-027-061>063-070>075-241800-
WESTERN AND SOUTH CENTRAL KENTUCKY

CITY           SKY/WX    TMP DP  RH WIND       PRES   REMARKS
PADUCAH        MOSUNNY   76  62  62 VRB5      30.07S
HENDERSON      MOSUNNY   75  61  60 N7        30.06F
OWENSBORO      PTSUNNY   78  58  50 NE13      30.06F
HOPKINSVILLE   PTSUNNY   77  64  65 N10       30.04F
BOWLING GREEN  MOSUNNY   79  63  57 NW5       30.03S
GLASGOW        CLOUDY    77  62  60 NE5       30.03S
$$

KYZ024-025-028>034-038-045-046-053-241800-
NORTH CENTRAL KENTUCKY

CITY           SKY/WX    TMP DP  RH WIND       PRES   REMARKS
LOUISVILLE/SDF MOSUNNY   78  54  43 N14       30.05S
LOUISVILLE/LOU SUNNY     76  53  44 NE14G21   30.06S
FORT KNOX      MOSUNNY   76  55  47 N10       30.04F
$$

KYZ035>037-039>044-047>052-055>060-089>105-241800-
NORTHEAST KENTUCKY

CITY           SKY/WX    TMP DP  RH WIND       PRES   REMARKS
LEXINGTON      CLOUDY    71  59  65 N9        30.06R
COVINGTON      MOSUNNY   72  54  53 N13       30.07S
FRANKFORT      PTSUNNY   72  56  57 N10G17    30.05S
$$

KYZ054-064>069-076>088-106>120-241800-
SOUTHEAST KENTUCKY

CITY           SKY/WX    TMP DP  RH WIND       PRES   REMARKS
JACKSON        CLOUDY    65  63  93 N6        30.03R FOG
LONDON         CLOUDY    71  66  84 N8        30.02R
SOMERSET       CLOUDY    68  66  94 N6        30.04S
MIDDLESBORO    PTSUNNY   82  68  63 W6        29.99F
MONTICELLO     PTSUNNY   72  69  90 NW7       30.04S FOG
$$




USA.gov is the U.S. government's official web portal to all federal, state and local government web resources and services.